Regional Weather Roundup
Issued by NWS

Home | Current Version | Previous Version | Text Only | Print | Product List | Glossary Off
Versions: 1 2 3 4 5 6 7 8 9 10 11 12 13 14 15 16 17 18 19 20 21 22 23 24 25 26 27 28 29 30 31 32 33 34 35 36 37 38 39 40 41 42 43 44 45 46 47 48 49 50

000
ASUS43 KLOT 190208
RWRIL

ILLINOIS REGIONAL WEATHER ROUNDUP
NATIONAL WEATHER SERVICE CHICAGO/ROMEOVILLE IL
900 PM CDT SAT APR 18 2015

NOTE: "FAIR" INDICATES FEW OR NO CLOUDS BELOW 12,000 FEET WITH NO
SIGNIFICANT WEATHER AND/OR OBSTRUCTIONS TO VISIBILITY.

* THESE STATIONS ARE NOT UNDER NWS QUALITY CONTROL. THEY ALSO MAY NOT
  REPORT WEATHER SUCH AS PRECIPITATION OR FOG.

ILZ001-002-007-009-015-016-024-190300-
NORTHWEST ILLINOIS

CITY           SKY/WX    TMP DP  RH WIND       PRES   REMARKS
MOLINE         MOCLDY    68  47  46 E17       29.91R
STERLING*      PTCLDY    63  37  39 E20       29.95R
SAVANNA*       PTCLDY    64  40  41 E20       29.93S
$$

ILZ003-004-008-010-011-017-018-190300-
NORTH CENTRAL ILLINOIS

CITY           SKY/WX    TMP DP  RH WIND       PRES   REMARKS
ROCKFORD       MOCLDY    56  32  40 E14G20    30.02R
FREEPORT*      MOCLDY    57  37  46 E13       30.00R
ROCHELLE*      PTCLDY    58  39  49 E10       29.99R
DE KALB*       PTCLDY    54  35  50 NE14      30.01R
PERU*          MOCLDY    60  38  42 E18       29.97R
$$

ILZ005-006-012>014-019>023-190300-
NORTHEAST ILLINOIS

CITY           SKY/WX    TMP DP  RH WIND       PRES   REMARKS
CHICAGO-OHARE  MOCLDY    47  33  58 NE12      30.03R
CHICAGO-MIDWAY CLOUDY    50  34  54 N10       30.02S
AURORA         MOCLDY    55  32  41 NE15G23   29.99S
LANSING*       CLOUDY    45  35  66 NE8       30.02R
JOLIET*        MOCLDY    55  35  47 NE8       30.00R
WAUKEGAN       PTCLDY    45  34  65 N8        30.04R
DUPAGE AIRPORT MOCLDY    52  32  46 NE10      30.01R
KANKAKEE*      MOCLDY    50  38  63 NE10      30.00R
WHEELING       PTCLDY    47  33  58 N8        30.04R
MORRIS*        MOCLDY    55  34  45 NE8       29.97R
ROMEOVILLE*    CLOUDY    52  33  48 NE12      30.01R
NORTHERLY ISL    N/A     46  35  65 MISG        N/A
$$

LMZ740>746-190300-
SOUTHERN LAKE MICHIGAN

STATION/POSITION SKY/WX   TEMP    WIND        PRES    VSBY  WAVE
                          AIR SEA DIR/SP/G                  HT/PER
                          (F)     (DEG/KT/KT) (MB)    (MI)  (FT/S)
HARRISON CRIB              42     340/ 15/ 17   N/A
BURNHAM HARBOR             46      10/  8/ 14   N/A
CALUMET HARBOR             43     340/ 10/ 13   N/A
BURNS HARBOR               42     300/  7/  8 1016.6F
MICHIGAN CITY              42     260/  6/  7   N/A
MICHIGAN CITY 6N           41 46  300/  4/  6   N/A           4/ 6
$$

ILZ025>027-034>036-040-047-049-050-058-095>099-190300-
WEST-CENTRAL ILLINOIS

CITY           SKY/WX    TMP DP  RH WIND       PRES   REMARKS
QUINCY         CLOUDY    66  56  70 N3        29.89R
GALESBURG*     MOCLDY    71  47  42 SE6       29.91R
MACOMB*        PTCLDY    68  48  48 SE7       29.92S
JACKSONVILLE*  MOCLDY    71  54  55 E9        29.90S
PITTSFIELD*    CLOUDY    70  55  59 E6        29.89F
$$

ILZ028>032-037-038-041>044-048-051>054-059>061-190300-
CENTRAL ILLINOIS

CITY           SKY/WX    TMP DP  RH WIND       PRES   REMARKS
PONTIAC        MOCLDY    58  42  56 E10       29.98R
BLOOMINGTON    MOCLDY    67  50  54 NE7       29.96R
DECATUR        CLOUDY    65  48  54 SE5       29.93S
PEORIA         PTCLDY    72  46  39 S7        29.92R
LACON*         MOCLDY    64  45  51 E13G20    29.95R
LINCOLN*       CLOUDY    70  45  41 SE5       29.91R
SPRINGFIELD    MOCLDY    67  51  56 SE8       29.92R
TAYLORVILLE    CLOUDY    68  50  52 E6        29.92S
$$

ILZ033-039-045-046-055>057-062-063-190300-
EAST-CENTRAL ILLINOIS

CITY           SKY/WX    TMP DP  RH WIND       PRES   REMARKS
CHAMPAIGN      MOCLDY    63  49  60 NE7       29.94F
DANVILLE*      PTCLDY    66  49  53 CALM      29.94R
RANTOUL*       PTCLDY    66  49  54 E5        29.95S
MATTOON        MOCLDY    67  47  48 E5        29.92S
PARIS*         CLOUDY    66  50  56 E5        29.94S
$$

ILZ079-100>102-190300-
SOUTHWEST ILLINOIS

CITY           SKY/WX    TMP DP  RH WIND       PRES   REMARKS
ALTON          MOCLDY    70  55  60 E6        29.88S
BELLEVILLE     CLOUDY    69  59  69 E2        29.86S
CAHOKIA*       CLOUDY    70  57  63 E5        29.86F
SPARTA*        CLOUDY    68  58  69 CALM      29.88S
$$

ILZ064>066-069>071-074>076-080>082-084>086-088>090-092>094-190300-
SOUTH-CENTRAL ILLINOIS

CITY           SKY/WX    TMP DP  RH WIND       PRES   REMARKS
CARBONDALE     CLOUDY    69  59  70 CALM      29.87R
CAIRO*         PTCLDY    66  63  87 CALM      29.85S
EFFINGHAM*     CLOUDY    71  45  39 NE5       29.93S
MARION         CLOUDY    73  57  56 E3        29.88R
MT. VERNON     CLOUDY    68  54  60 NE5       29.89S
CENTRALIA*     CLOUDY    67  54  63 CALM      29.89S
SALEM*         CLOUDY    71  55  58 NE3       29.90R
METROPOLIS*    PTCLDY    67  60  79 CALM      29.86R
$$

ILZ067-068-072-073-078-083-087-091-190300-
SOUTHEAST ILLINOIS

CITY           SKY/WX    TMP DP  RH WIND       PRES   REMARKS
LAWRENCEVILLE  MOCLDY    70  48  45 E8        29.91S
FLORA*         MOCLDY    67  55  64 NE6       29.90S
FAIRFIELD*     CLOUDY    68  55  64 NE5       29.87S
HARRISBURG*    CLOUDY    71  57  62 CALM      29.88S
ROBINSON*      CLOUDY    64  50  60 NE3       29.93S
CARMI*         CLOUDY    65  54  66 N6        29.87S
$$

ABBREVIATIONS USED IN REMARKS
   TC - TEMPERATURE IN CELSIUS
  WCI - WIND CHILL INDEX
   HX - HEAT INDEX
  VSB - VISIBILITY
$$




USA.gov is the U.S. government's official web portal to all federal, state and local government web resources and services.